Medford, OR

2:51 AM PDT on May 30, 2017 (GMT -0700)
Rogue Valley International-Medford

Weather History for KMFR - July, 2014

Change the Weather History Date:

Sunday, July 6, 2014

  Actual Average Record
Temperature  
Mean Temperature 81 °F 72 °F  
Max Temperature 99 °F 88 °F 104 °F (1922)
Min Temperature 62 °F 56 °F 42 °F (1961)
Degree Days  
Heating Degree Days 0 0  
Month to date heating degree days 0 1  
Since 1 June heating degree days 22 55  
Since 1 July heating degree days 0 1  
Cooling Degree Days 16 8  
Month to date cooling degree days 86 42  
Year to date cooling degree days 253 188  
Since 1 June cooling degree days 197 150  
Growing Degree Days 30 (Base 50)    
Moisture  
Dew Point 48 °F    
Average Humidity 41    
Maximum Humidity 67    
Minimum Humidity 15    
Precipitation  
Precipitation 0.00 in 0.01 in 0.40 in (1923)
Month to date precipitation 0.00 0.06  
Year to date precipitation 10.66 9.52  
Snow  
Snow 0.00 in 0.00 in - ()
Month to date snowfall 0.0 0.0  
Since 1 July snowfall 0.0 0.0  
Snow Depth 0.00 in    
Sea Level Pressure  
Sea Level Pressure 30.03 in    
Wind  
Wind Speed 5 mph (NNW)    
Max Wind Speed 16 mph    
Max Gust Speed 20 mph    
Visibility 10 miles    
Events      
T = Trace of Precipitation, MM = Missing Value Source: NWS Daily Summary

Daily Weather History Graph

Daily Weather History Graph

Search for Another Location

Airport or City:

Trip Planner

Search our weather history database for the weather conditions in past years. The results will help you decide how hot, cold, wet, or windy it might be!

Date:

Astronomy

Jul. 06, 2014 Rise Set
Actual Time 5:41 AM PDT 8:50 PM PDT
Civil Twilight 5:07 AM PDT 9:25 PM PDT
Nautical Twilight 4:23 AM PDT 10:09 PM PDT
Astronomical Twilight 3:30 AM PDT 11:01 PM PDT
Moon 2:52 PM PDT (7/6) 1:08 AM PDT (7/6)
Length of Visible Light 16h 18m
Length of Day
15h 09m
Waxing Gibbous, 63% of the Moon is Illuminated
Jul 6
Waxing Gibbous
Jul 12
Full
Jul 18
Last Quarter
Jul 26
New
Aug 3
First Quarter

Hourly Weather History & Observations

Time (PDT) Temp. Dew Point Humidity Pressure Visibility Wind Dir Wind Speed Gust Speed Precip Events Conditions
12:53 AM 73.0 °F 54.0 °F 51% 30.04 in 10.0 mi NNE 3.5 mph - N/A   Clear
1:53 AM 71.1 °F 52.0 °F 51% 30.05 in 10.0 mi North 3.5 mph - N/A   Clear
2:53 AM 71.1 °F 51.1 °F 49% 30.05 in 10.0 mi SW 5.8 mph - N/A   Clear
3:53 AM 68.0 °F 51.1 °F 55% 30.06 in 10.0 mi Calm Calm - N/A   Clear
4:53 AM 64.0 °F 52.0 °F 65% 30.07 in 10.0 mi Calm Calm - N/A   Clear
5:53 AM 62.1 °F 51.1 °F 67% 30.08 in 10.0 mi Calm Calm - N/A   Clear
6:53 AM 64.9 °F 52.0 °F 63% 30.09 in 10.0 mi Calm Calm - N/A   Clear
7:53 AM 68.0 °F 52.0 °F 56% 30.10 in 10.0 mi Calm Calm - N/A   Clear
8:53 AM 73.0 °F 52.0 °F 48% 30.09 in 10.0 mi North 3.5 mph - N/A   Clear
9:53 AM 77.0 °F 52.0 °F 42% 30.08 in 10.0 mi NE 3.5 mph - N/A   Clear
10:53 AM 82.0 °F 52.0 °F 35% 30.06 in 10.0 mi Variable 4.6 mph - N/A   Clear
11:53 AM 86.0 °F 51.1 °F 30% 30.05 in 10.0 mi NW 5.8 mph - N/A   Clear
12:53 PM 88.0 °F 51.1 °F 28% 30.03 in 10.0 mi Variable 3.5 mph - N/A   Clear
1:53 PM 93.0 °F 50.0 °F 23% 30.01 in 10.0 mi North 4.6 mph - N/A   Clear
2:53 PM 95.0 °F 50.0 °F 22% 29.99 in 10.0 mi Variable 4.6 mph - N/A   Clear
3:53 PM 96.1 °F 44.1 °F 17% 29.97 in 10.0 mi West 10.4 mph - N/A   Clear
4:53 PM 97.0 °F 42.1 °F 15% 29.96 in 10.0 mi NW 10.4 mph - N/A   Clear
5:53 PM 97.0 °F 41.0 °F 14% 29.95 in 10.0 mi NW 12.7 mph - N/A   Clear
6:53 PM 95.0 °F 42.1 °F 16% 29.95 in 10.0 mi North 15.0 mph - N/A   Clear
7:53 PM 91.0 °F 43.0 °F 19% 29.96 in 10.0 mi NNW 10.4 mph - N/A   Clear
8:53 PM 86.0 °F 42.1 °F 21% 29.98 in 10.0 mi NNW 8.1 mph - N/A   Clear
9:53 PM 81.0 °F 43.0 °F 26% 30.00 in 10.0 mi North 5.8 mph - N/A   Clear
10:53 PM 75.9 °F 45.0 °F 33% 30.01 in 10.0 mi East 3.5 mph - N/A   Clear
11:53 PM 73.0 °F 46.9 °F 39% 30.02 in 10.0 mi SSW 3.5 mph - N/A   Clear